Date String (YYYY-MM-DD hh:mm:ss) UTC,Instrument flags,absolute air pressure of the measurement (hPa),sample flow rate (lpm),inlet stack bypass flow (lpm),air temperature of the measurement (°C),ambient temperature measured by the external sensor (°C),aerosol sample conditioner tube jacket temperature (°C),OPC LED temperature (°C),internal box temperature (°C),relative humidity of the measurement (%),span deviation,mass concentration of particles derived from Lorenz-Mie calculation of OPC scattering (μg/m³),mass concentration of particles derived from Lorenz-Mie calculation of OPC scattering (μg/m³),mass concentration of particles derived from Lorenz-Mie calculation of OPC scattering (μg/m³)
DateTimeUTC,F1_M11,P_M11,Q1_M11,Q2_M11,T1_M11,T2_M11,T3_M11,T4_M11,T5_M11,U1_M11,ZSPAN_M11,X0_M11,X2_M11,X1_M11
2024-04-29 06:00:00,SystemResetWarning,0826.0,5.00,000.00,025.7,024.9,000.0,034.3,027.5,019.9,0000.0,0003.06,0001.33,0000.90
2024-04-29 06:01:00,SystemResetWarning,0826.0,5.00,000.00,025.7,024.9,000.0,034.3,027.6,019.9,0000.0,0003.06,0001.34,0000.93
2024-04-29 06:02:00,SystemResetWarning,0826.0,5.00,000.00,025.7,024.9,000.0,034.3,027.6,020.2,0000.0,0003.80,0001.41,0000.95
2024-04-29 06:03:00,SystemResetWarning,0826.1,5.00,000.00,025.7,024.9,000.0,034.3,027.6,020.4,0000.0,0003.96,0001.47,0000.99
2024-04-29 06:04:00,SystemResetWarning,0826.1,5.00,000.00,025.7,024.9,000.0,034.3,027.6,020.4,0000.0,0004.25,0001.51,0001.03
2024-04-29 06:05:00,SystemResetWarning,0826.1,5.01,000.00,025.7,024.9,000.0,034.3,027.6,020.4,0000.0,0005.61,0001.53,0001.04
2024-04-29 06:06:00,SystemResetWarning,0826.1,5.01,000.00,025.7,024.9,000.0,034.3,027.6,020.4,0000.0,0005.58,0001.54,0001.05
2024-04-29 06:07:00,SystemResetWarning,0826.2,5.01,000.00,025.7,024.9,000.0,034.3,027.6,020.4,0000.0,0006.92,0001.57,0001.06
2024-04-29 06:08:00,SystemResetWarning,0826.2,5.00,000.00,025.7,024.9,000.0,034.3,027.6,020.4,0000.0,0007.74,0001.58,0001.08
2024-04-29 06:09:00,SystemResetWarning,0826.2,4.98,000.00,025.7,024.9,000.0,034.3,027.6,020.4,0000.0,0007.56,0001.57,0001.11
2024-04-29 06:10:00,SystemResetWarning,0826.2,5.00,000.00,025.7,024.9,000.0,034.3,027.5,020.4,0000.0,0007.23,0001.56,0001.12
2024-04-29 06:11:00,SystemResetWarning,0826.2,5.00,000.00,025.7,024.9,000.0,034.3,027.5,020.4,0000.0,0007.17,0001.58,0001.14
2024-04-29 06:12:00,SystemResetWarning,0826.2,5.00,000.00,025.7,024.9,000.0,034.3,027.5,020.4,0000.0,0007.16,0001.57,0001.15
2024-04-29 06:13:00,SystemResetWarning,0826.2,5.00,000.00,025.7,024.9,000.0,034.3,027.5,020.4,0000.0,0006.57,0001.56,0001.16
2024-04-29 06:14:00,SystemResetWarning,0826.3,5.00,000.00,025.7,024.9,000.0,034.3,027.5,020.5,0000.0,0006.58,0001.58,0001.16
2024-04-29 06:15:00,SystemResetWarning,0826.3,5.01,000.00,025.7,024.9,000.0,034.3,027.5,020.5,0000.0,0006.44,0001.60,0001.17
2024-04-29 06:16:00,SystemResetWarning,0826.3,5.00,000.00,025.7,024.9,000.0,034.3,027.6,020.4,0000.0,0005.12,0001.62,0001.19
2024-04-29 06:17:00,SystemResetWarning,0826.4,5.00,000.00,025.7,024.9,000.0,034.3,027.5,020.4,0000.0,0005.09,0001.62,0001.21
2024-04-29 06:18:00,SystemResetWarning,0826.4,4.99,000.00,025.7,024.9,000.0,034.3,027.5,020.4,0000.0,0003.74,0001.61,0001.21
2024-04-29 06:19:00,SystemResetWarning,0826.4,4.99,000.00,025.7,024.9,000.0,034.3,027.6,020.4,0000.0,0002.84,0001.61,0001.22
2024-04-29 06:20:00,SystemResetWarning,0826.4,4.99,000.00,025.7,024.9,000.0,034.3,027.6,020.4,0000.0,0002.82,0001.60,0001.22
2024-04-29 06:21:00,SystemResetWarning,0826.4,5.00,000.00,025.7,024.9,000.0,034.3,027.6,020.4,0000.0,0002.90,0001.60,0001.22
2024-04-29 06:22:00,SystemResetWarning,0826.4,5.02,000.00,025.7,024.9,000.0,034.3,027.6,020.5,0000.0,0003.72,0001.60,0001.22
2024-04-29 06:23:00,SystemResetWarning,0826.4,5.00,000.00,025.7,024.9,000.0,034.3,027.6,020.5,0000.0,0004.70,0001.63,0001.22
2024-04-29 06:24:00,SystemResetWarning,0826.4,4.99,000.00,025.7,024.9,000.0,034.3,027.6,020.5,0000.0,0004.76,0001.64,0001.24
2024-04-29 06:25:00,SystemResetWarning,0826.4,4.99,000.00,025.7,024.9,000.0,034.3,027.6,020.5,0000.0,0004.70,0001.62,0001.24
2024-04-29 06:26:00,SystemResetWarning,0826.4,5.00,000.00,025.7,024.9,000.0,034.3,027.6,020.5,0000.0,0004.62,0001.60,0001.23
2024-04-29 06:27:00,SystemResetWarning,0826.4,5.00,000.00,025.7,024.9,000.0,034.3,027.6,020.4,0000.0,0004.59,0001.59,0001.22
2024-04-29 06:28:00,SystemResetWarning,0826.4,5.00,000.00,025.7,024.9,000.0,034.3,027.6,020.4,0000.0,0004.71,0001.62,0001.23
2024-04-29 06:29:00,SystemResetWarning,0826.4,5.01,000.00,025.7,025.0,000.0,034.3,027.6,020.4,0000.0,0004.96,0001.70,0001.24
2024-04-29 06:30:00,SystemResetWarning,0826.4,5.00,000.00,025.7,025.0,000.0,034.3,027.6,020.4,0000.0,0004.89,0001.79,0001.25
2024-04-29 06:31:00,SystemResetWarning,0826.4,4.99,000.00,025.7,025.0,000.0,034.3,027.6,020.4,0000.0,0004.99,0001.84,0001.26
2024-04-29 06:32:00,SystemResetWarning,0826.4,4.99,000.00,025.7,025.0,000.0,034.3,027.6,020.5,0000.0,0005.07,0001.92,0001.28
2024-04-29 06:33:00,SystemResetWarning,0826.4,5.00,000.00,025.7,025.0,000.0,034.3,027.6,020.5,0000.0,0004.38,0001.96,0001.31
2024-04-29 06:34:00,SystemResetWarning,0826.4,5.01,000.00,025.7,025.0,000.0,034.3,027.6,020.3,0000.0,0003.51,0001.97,0001.31
2024-04-29 06:35:00,SystemResetWarning,0826.4,5.01,000.00,025.7,025.0,000.0,034.3,027.6,020.1,0000.0,0003.67,0002.03,0001.32
2024-04-29 06:36:00,SystemResetWarning,0826.3,5.00,000.00,025.7,025.0,000.0,034.3,027.6,020.1,0000.0,0003.77,0002.07,0001.32
2024-04-29 06:37:00,SystemResetWarning,0826.4,4.99,000.00,025.7,024.9,000.0,034.3,027.6,020.3,0000.0,0003.86,0002.10,0001.33
2024-04-29 06:38:00,SystemResetWarning,0826.4,5.00,000.00,025.7,024.9,000.0,034.3,027.6,020.3,0000.0,0003.84,0002.11,0001.33
2024-04-29 06:39:00,SystemResetWarning,0826.4,5.00,000.00,025.7,024.9,000.0,034.3,027.6,020.3,0000.0,0003.96,0002.16,0001.33
2024-04-29 06:40:00,SystemResetWarning,0826.4,5.00,000.00,025.7,024.9,000.0,034.3,027.5,020.2,0000.0,0004.15,0002.16,0001.32
2024-04-29 06:41:00,SystemResetWarning,0826.4,5.00,000.00,025.7,024.9,000.0,034.3,027.5,020.1,0000.0,0004.56,0002.15,0001.32
2024-04-29 06:42:00,SystemResetWarning,0826.4,5.02,000.00,025.7,024.9,000.0,034.3,027.5,020.2,0000.0,0004.73,0002.19,0001.34
2024-04-29 06:43:00,SystemResetWarning,0826.4,5.00,000.00,025.7,024.9,000.0,034.3,027.5,019.7,0000.0,0004.77,0002.18,0001.33
2024-04-29 06:44:00,SystemResetWarning,0826.4,5.00,000.00,025.7,024.9,000.0,034.2,027.5,020.0,0000.0,0004.68,0002.10,0001.30
2024-04-29 06:45:00,SystemResetWarning,0826.3,5.00,000.00,025.7,024.9,000.0,034.2,027.5,020.4,0000.0,0005.75,0002.11,0001.29
2024-04-29 06:46:00,SystemResetWarning,0826.4,4.99,000.00,025.7,024.9,000.0,034.2,027.5,020.4,0000.0,0005.90,0002.08,0001.29
2024-04-29 06:47:00,SystemResetWarning,0826.4,5.00,000.00,025.6,024.9,000.0,034.2,027.5,019.7,0000.0,0005.82,0002.05,0001.30
2024-04-29 06:48:00,SystemResetWarning,0826.4,5.00,000.00,025.6,024.8,000.0,034.2,027.5,018.4,0000.0,0005.73,0002.00,0001.27
2024-04-29 06:49:00,SystemResetWarning,0826.4,5.00,000.00,025.6,024.8,000.0,034.2,027.5,017.5,0000.0,0005.74,0001.98,0001.24
2024-04-29 06:50:00,SystemResetWarning,0826.4,5.00,000.00,025.6,024.8,000.0,034.2,027.5,017.6,0000.0,0005.53,0001.87,0001.19
2024-04-29 06:51:00,SystemResetWarning,0826.4,4.99,000.00,025.6,024.8,000.0,034.2,027.5,018.1,0000.0,0005.10,0001.79,0001.16
2024-04-29 06:52:00,SystemResetWarning,0826.4,5.02,000.00,025.6,024.8,000.0,034.2,027.5,018.3,0000.0,0004.49,0001.68,0001.12
2024-04-29 06:53:00,SystemResetWarning,0826.4,5.00,000.00,025.6,024.8,000.0,034.2,027.4,018.5,0000.0,0004.58,0001.64,0001.07
2024-04-29 06:54:00,SystemResetWarning,0826.4,5.00,000.00,025.6,024.8,000.0,034.2,027.4,018.7,0000.0,0004.60,0001.61,0001.05
2024-04-29 06:55:00,SystemResetWarning,0826.3,5.00,000.00,025.6,024.8,000.0,034.2,027.4,018.6,0000.0,0004.59,0001.61,0001.03
2024-04-29 06:56:00,SystemResetWarning,0826.4,5.00,000.00,025.6,024.8,000.0,034.2,027.4,018.8,0000.0,0003.60,0001.58,0001.02
2024-04-29 06:57:00,SystemResetWarning,0826.4,5.00,000.00,025.6,024.8,000.0,034.2,027.4,018.6,0000.0,0003.07,0001.52,0000.98
2024-04-29 06:58:00,SystemResetWarning,0826.4,5.01,000.00,025.6,024.8,000.0,034.2,027.4,017.6,0000.0,0002.94,0001.45,0000.93
2024-04-29 06:59:00,SystemResetWarning,0826.4,5.00,000.00,025.6,024.8,000.0,034.2,027.4,018.1,0000.0,0003.67,0001.45,0000.92
